Location: Ar Ranvel
(48.3000°N, 4.8833°W)
Time: 09:11:30
(UTC+00:00)

Cosmos 968 Rocket - Pass Details

Date: 16 June 2021
Orbit: 740 x 771 km, 74.0° (Epoch: 04 August)

Event Time Altitude Azimuth Distance (km) Brightness Sun altitude
Rises 22:22:44 0° 339° (NNW) 3,189 8.6 -13.6°
Reaches altitude 10° 22:25:08 10° 344° (NNW) 2,263 7.3 -13.8°
Maximum altitude 22:30:11 57° 63° (ENE) 879 3.8 -14.2°
Enters shadow 22:33:33 21° 136° (SE) 1,649 4.7 -14.4°
